This demonstration page uses our WeatherBlox Daily Observations layout. Learn more.

Left ArrowRight Arrow

Hourly Observations for January 30, 2015

Temp ( °F °C ) Dew Point ( °F °C ) Humidity (%) Winds ( mph kmh ) Pressure ( in mb ) Visibility ( mi km ) Precip ( " mm )
12:51 am 00:51 Cloudy with Light Rain 50 10 47 8.3 89 89 ESE 10 17 30.10 1019 10 16 0.04 1.02
1:12 am 01:12 Cloudy with Light Rain 50 10 46 7.8 86 86 ESE 9 15 30.18 1022 10 16 0.00 0.03
1:51 am 01:51 Cloudy with Light Rain 49 9.4 46 7.8 90 90 ESE 14 22 30.09 1019 10 16 0.01 0.25
2:21 am 02:21 Cloudy with Light Rain 49 9.4 45 7.2 86 86 ESE 12 19 30.15 1021 10 16 0.00 0.03
2:51 am 02:51 Cloudy with Light Rain 49 9.4 45 7.2 86 86 ESE 13 20 30.07 1018 10 16 0.00 0.03
3:48 am 03:48 Cloudy with Rain 48 9 45 7 87 87 SSE 10 17 30.12 1020 6 10 0.05 1.27
3:51 am 03:51 Cloudy with Rain 48 8.9 45 7.2 89 89 SSE 10 17 30.05 1018 6 10 0.06 1.52
4:03 am 04:03 Cloudy with Rain 48 8.9 45 7.2 89 89 SSE 9 15 30.12 1020 6 10 0.01 0.25
4:14 am 04:14 Cloudy with Light Rain 48 8.9 45 7.2 89 89 SE 9 15 30.12 1020 6 10 0.03 0.76
4:51 am 04:51 Cloudy with Light Rain 48 8.9 45 7.2 89 89 SSE 9 15 30.03 1017 9 14 0.05 1.27
5:18 am 05:18 Cloudy with Light Rain 47 8.3 45 7.2 93 93 SSE 10 17 30.09 1019 8 13 0.02 0.51
5:51 am 05:51 Cloudy with Light Rain 47 8.3 45 7.2 93 93 SSE 13 20 30.01 1016 9 14 0.05 1.27
6:40 am 06:40 Cloudy with Rain 47 8.3 45 7.2 93 93 S 10 17 30.09 1019 6 10 0.08 2.03
6:51 am 06:51 Cloudy with Rain 47 8.3 45 7.2 93 93 SSE 8 13 30.03 1017 5 8 0.11 2.79
7:21 am 07:21 Cloudy with Light Rain 47 8.3 45 7.2 93 93 SE 8 13 30.09 1019 7 11 0.07 1.78
7:51 am 07:51 Cloudy with Light Rain 47 8.3 45 7.2 93 93 SE 8 13 30.05 1018 10 16 0.09 2.29
8:07 am 08:07 Cloudy with Rain 47 8.3 45 7.2 93 93 SE 8 13 30.09 1019 5 8 0.01 0.25
8:51 am 08:51 Cloudy with Light Rain 47 8.3 45 7.2 93 93 SE 9 15 30.06 1018 4 6 0.11 2.79
9:26 am 09:26 Cloudy with Rain 47 8.3 45 7.2 93 93 SSE 9 15 30.12 1020 5 8 0.04 1.02
9:35 am 09:35 Cloudy with Rain 47 8.3 45 7.2 93 93 SSE 8 13 30.12 1020 4 6 0.06 1.52
9:42 am 09:42 Cloudy with Rain 47 8.3 45 7.2 93 93 SSE 8 13 30.12 1020 4 6 0.08 2.03
9:51 am 09:51 Cloudy with Rain 47 8.3 45 7.2 93 93 SE 9 15 30.05 1018 4 6 0.10 2.54
10:30 am 10:30 Cloudy with Light Rain 48 8.9 46 7.8 93 93 ESE 14 22 30.09 1019 7 11 0.09 2.29
10:51 am 10:51 Cloudy with Light Rain 48 8.9 45 7.2 89 89 ESE 15 24 30.04 1017 9 14 0.10 2.54
11:29 am 11:29 Cloudy with Light Rain 48 9 45 7 87 87 SE 14 22 30.06 1018 9 14 0.00 0.00
11:51 am 11:51 Cloudy with Light Rain 47 8.3 45 7.2 93 93 S 9 15 30.01 1016 9 14 0.03 0.76
12:51 pm 12:51 Cloudy with Light Rain 48 8.9 45 7.2 89 89 SE 13 20 29.96 1015 7 11 0.05 1.27
1:51 pm 13:51 Cloudy with Light Rain 48 8.9 45 7.2 89 89 SSE 6 9 29.92 1013 8 13 0.05 1.27
2:32 pm 14:32 Cloudy with Rain 47 8.3 45 7.2 93 93 SSW 8 13 29.97 1015 4 6 0.04 1.02
2:51 pm 14:51 Cloudy with Light Rain 47 8.3 45 7.2 93 93 SE 5 7 29.91 1013 6 10 0.07 1.78
3:01 pm 15:01 Cloudy with Light Rain 47 8.3 45 7.2 93 93 ESE 5 7 29.97 1015 7 11 0.01 0.25
3:51 pm 15:51 Cloudy with Light Rain 47 8.3 45 7.2 93 93 S 7 11 29.90 1012 4 6 0.07 1.78
4:51 pm 16:51 Cloudy with Light Rain 48 8.9 45 7.2 89 89 SSE 7 11 29.88 1012 4 6 0.03 0.76
5:51 pm 17:51 Cloudy with Light Rain 48 8.9 46 7.8 93 93 SE 6 9 29.87 1012 5 8 0.01 0.25
6:51 pm 18:51 Cloudy with Mist and Fog 47 8.3 46 7.8 97 97 SSE 6 9 29.88 1012 6 10 0.02 0.51
7:51 pm 19:51 Cloudy with Light Rain 47 8.3 46 7.8 97 97 SSW 6 9 29.89 1012 4 6 0.01 0.25
8:02 pm 20:02 Cloudy with Heavy Rain 47 8.3 46 7.8 97 97 WSW 7 11 29.97 1015 2 3 0.06 1.52
8:16 pm 20:16 Cloudy with Rain 47 8.3 46 7.8 97 97 WSW 7 11 29.97 1015 3 5 0.10 2.54
8:51 pm 20:51 Cloudy with Light Rain 47 8.3 46 7.8 97 97 Calm 29.89 1012 5 8 0.16 4.06
9:51 pm 21:51 Cloudy with Rain 47 8.3 46 7.8 97 97 N 3 6 29.89 1012 4 6 0.05 1.27
10:51 pm 22:51 Cloudy with Light Rain 47 8.3 46 7.8 97 97 SSE 7 11 29.88 1012 5 8 0.06 1.52
11:51 pm 23:51 Cloudy with Light Rain 47 8.3 46 7.8 97 97 S 7 11 29.87 1011 4 6 0.03 0.76

Powered by AerisWeather